Regional Weather Roundup
Issued by NWS

Home | Current Version | Previous Version | Graphics & Text | Print | Product List | Glossary On
Versions: 1 2 3 4 5 6 7 8 9 10 11 12 13 14 15 16 17 18 19 20 21 22 23 24 25 26 27 28 29 30 31 32 33 34 35 36 37 38 39 40 41 42 43 44 45 46 47 48 49 50
000
ASUS43 KLOT 020700
RWRIL

ILLINOIS REGIONAL WEATHER ROUNDUP
NATIONAL WEATHER SERVICE CHICAGO/ROMEOVILLE IL
200 AM CDT SUN AUG 02 2015

NOTE: "FAIR" INDICATES FEW OR NO CLOUDS BELOW 12,000 FEET WITH NO
SIGNIFICANT WEATHER AND/OR OBSTRUCTIONS TO VISIBILITY.

* THESE STATIONS ARE NOT UNDER NWS QUALITY CONTROL. THEY ALSO MAY NOT
  REPORT WEATHER SUCH AS PRECIPITATION OR FOG.

ILZ001-002-007-009-015-016-024-020800-
NORTHWEST ILLINOIS

CITY           SKY/WX    TMP DP  RH WIND       PRES   REMARKS
MOLINE         CLEAR     74  70  87 SW8       29.89F
STERLING*      CLEAR     70  64  83 SW5       29.87F
$$

ILZ003-004-008-010-011-017-018-020800-
NORTH CENTRAL ILLINOIS

CITY           SKY/WX    TMP DP  RH WIND       PRES   REMARKS
ROCKFORD       CLEAR     68  64  87 S3        29.90F
$$

ILZ005-006-012>014-019>023-020800-
NORTHEAST ILLINOIS

CITY           SKY/WX    TMP DP  RH WIND       PRES   REMARKS
CHICAGO-OHARE  PTCLDY    73  65  75 W9        29.88F
CHICAGO-MIDWAY CLEAR     76  64  66 SW12      29.88F
AURORA         CLEAR     70  64  81 SW10      29.90F
WAUKEGAN       CLEAR     72  65  78 SW6       29.86S
DUPAGE AIRPORT CLEAR     71  65  81 SW12      29.90S
WHEELING       CLEAR     75  64  68 W8        29.89S
NORTHERLY ISL    N/A     77  63  61 W3          N/A
$$

LMZ740>746-020800-
SOUTHERN LAKE MICHIGAN

STATION/POSITION SKY/WX   TEMP    WIND        PRES    VSBY  WAVE
                          AIR SEA DIR/SP/G                  HT/PER
                          (F)     (DEG/KT/KT) (MB)    (MI)  (FT/S)
HARRISON CRIB              77     250/ 18/ 24   N/A
BURNHAM HARBOR             77     250/  6/ 12   N/A
CALUMET HARBOR             75     230/  6/  9   N/A
BURNS HARBOR               75     220/ 10/ 13 1012.9
MICHIGAN CITY              74     190/ 12/ 13   N/A
MICHIGAN CITY 6N           75 74  240/ 12/ 14   N/A           2/ 3
ST. JOSEPH                 74 73  260/ 12/ 14   N/A           3/ 4
$$

ILZ025>027-034>036-040-047-049-050-058-095>099-020800-
WEST-CENTRAL ILLINOIS

CITY           SKY/WX    TMP DP  RH WIND       PRES   REMARKS
QUINCY         PTCLDY    69  65  86 S6        29.94F
MACOMB*        CLEAR     69  68  96 SW5       29.96S
$$

ILZ028>032-037-038-041>044-048-051>054-059>061-020800-
CENTRAL ILLINOIS

CITY           SKY/WX    TMP DP  RH WIND       PRES   REMARKS
DECATUR        CLEAR     69  61  75 SW6       29.97S
PEORIA         CLEAR     72  67  84 SW8       29.93F
SPRINGFIELD    CLEAR     72  64  76 S8        29.96F
TAYLORVILLE    NOT AVBL
$$

ILZ033-039-045-046-055>057-062-063-020800-
EAST-CENTRAL ILLINOIS

CITY           SKY/WX    TMP DP  RH WIND       PRES   REMARKS
CHAMPAIGN      CLEAR     65  61  87 SW6       29.97S
MATTOON        PTCLDY    70  60  70 S6        29.97S
$$

ILZ079-100>102-020800-
SOUTHWEST ILLINOIS

CITY           SKY/WX    TMP DP  RH WIND       PRES   REMARKS
BELLEVILLE     LGT RAIN  73  72  94 S2        29.97S
CAHOKIA*       CLEAR     74  68  81 CALM      29.97F
$$

ILZ064>066-069>071-074>076-080>082-084>086-088>090-092>094-020800-
SOUTH-CENTRAL ILLINOIS

CITY           SKY/WX    TMP DP  RH WIND       PRES   REMARKS
CARBONDALE     PTCLDY    70  68  93 CALM      29.98F
MT. VERNON     PTCLDY    64  61  88 CALM      30.00S
SALEM*         PTCLDY    67  64  89 S3        29.99S
$$

ILZ067-068-072-073-078-083-087-091-020800-
SOUTHEAST ILLINOIS

CITY           SKY/WX    TMP DP  RH WIND       PRES   REMARKS
LAWRENCEVILLE  PTCLDY    65  63  93 CALM      29.99S
FLORA*         PTCLDY    65  63  91 SW3       29.99S
HARRISBURG*    PTCLDY    65  65 100 CALM      30.00F
ROBINSON*      MOCLDY    64  63  96 CALM      30.00R
CARMI*         PTCLDY    65  61  86 CALM      29.99S
$$

ABBREVIATIONS USED IN REMARKS
   TC - TEMPERATURE IN CELSIUS
  WCI - WIND CHILL INDEX
   HX - HEAT INDEX
  VSB - VISIBILITY
$$



USA.gov is the U.S. government's official web portal to all federal, state and local government web resources and services.